Location: Buenos Aires
(34.6076°S, 58.4371°W)
Time: 13:16:36
(UTC-03:00)

Envisat - Pass Details

Date: 24 June 2021
Orbit: 764 x 766 km, 98.2° (Epoch: 03 August)

Event Time Altitude Azimuth Distance (km) Brightness Sun altitude
Rises 19:30:51 0° 188° (S) 3,265 6.2 -19.8°
Reaches altitude 10° 19:34:00 10° 208° (SSW) 2,330 5.7 -20.4°
Maximum altitude 19:37:04 16° 245° (WSW) 1,927 5.7 -21.0°
Drops below altitude 10° 19:40:07 10° 282° (WNW) 2,314 6.7 -21.6°
Sets 19:43:15 0° 303° (WNW) 3,231 7.5 -22.3°
